Orbital Elements at Epoch 2459200.5 (2020-Dec-17.0) TDB
Reference: JPL 37 (heliocentric ecliptic J2000)
Element | Value | Uncertainty (1-sigma) | Units |
e | .1452236141354693 | 2.1196e-08 | |
a | 2.671910923960106 | 1.1274e-08 | au |
q | 2.283886362934578 | 5.5226e-08 | au |
i | 12.68227952114699 | 6.113e-07 | deg |
node | 75.08444680169386 | 3.7639e-06 | deg |
peri | 95.20827200382571 | 9.8288e-06 | deg |
M | 185.351294025758 | 1.0488e-05 | deg |
tp | 2459974.416777331035 (2023-Jan-29.91677733) | 4.918e-05 | TDB |
period | 1595.259685922112 4.37 | 1.0097e-05 2.764e-08 | d yr |
n | .2256685874888817 | 1.4283e-09 | deg/d |
Q | 3.059935484985633 | 1.2911e-08 | au |
|
| | Orbit Determination Parameters
Additional Information
|